[[{"header":{"parameterUnit":"m.s-1","parameterCategory":1,"la1":30.2991,"la2":30.254,"lo1":-89.0895,"lo2":-89.0444,"dx":0.0017,"dy":0.0017,"nx":28,"ny":28,"refTime":"2022-11-07T03:00:00:Z","depth":0,"parameterNumber":2,"parameterNumberName":"U-component_of_WINDS"},"data":[0,0,0,0,0,0,0,0,0,0,0,0,0,0,0,0,0,0,0,0,0,0,0,0,0,0,0,0,0,0,0,0,0,0,0,0,0,0,0,0,0,0,0,0,0,0,0,0,0,0,0,0,0,0,0,0,0,0,-2.7636,-2.7635,0,-2.7549,-2.7548,-2.7547,-2.7443,-2.7441,-2.7439,-2.7438,-2.7349,-2.7348,-2.7347,0,0,0,0,0,0,0,0,0,0,0,0,0,-2.7714,-2.7713,-2.7636,-2.7635,-2.7634,-2.7549,-2.7548,-2.7547,-2.7443,-2.7441,-2.7439,-2.7437,-2.7349,-2.7348,-2.7347,0,0,0,0,0,0,0,0,0,0,0,0,0,-2.7659,-2.7713,-2.7636,-2.7572,-2.7565,-2.755,-2.7548,-2.7547,-2.7443,-2.7441,-2.7438,-2.7436,-2.7349,-2.7348,-2.7347,-2.7387,0,0,-2.7343,-2.7342,0,0,0,0,0,0,0,0,-2.7662,-2.7656,-2.7582,-2.7576,-2.7569,-2.7504,-2.7543,-2.7493,-2.7444,-2.749,-2.7438,-2.7435,-2.7402,-2.7397,-2.7385,-2.7383,-2.7379,-2.7343,-2.7342,-2.7341,-2.7341,0,0,0,0,0,0,0,-2.7666,-2.7659,-2.7602,-2.7582,-2.7573,-2.7548,-2.7537,-2.7533,-2.7461,-2.7485,-2.7478,-2.7469,-2.7398,-2.7387,-2.7383,-2.7378,-2.7343,-2.7341,-2.7341,-2.734,-2.7408,-2.741,0,0,0,0,0,0,-2.768,-2.7663,-2.7604,-2.7599,-2.7611,-2.7549,-2.7537,-2.7527,-2.746,-2.7448,-2.7471,-2.7464,-2.739,-2.7384,-2.7379,-2.7424,-2.7341,-2.734,-2.7339,-2.7405,-2.7408,-2.7411,0,0,0,0,0,0,-2.7682,-2.7675,-2.7608,-2.7629,-2.7619,-2.755,-2.754,-2.7527,-2.7516,-2.7449,-2.7436,-2.7473,-2.7388,-2.7381,-2.7387,-2.7419,-2.7339,-2.7338,-2.7402,-2.7406,-2.741,-2.7514,0,0,0,0,0,0,-2.7684,-2.7677,-2.7691,-2.763,-2.7618,-2.7617,-2.7542,-2.7527,-2.7514,-2.7504,-2.7448,-2.7436,-2.7386,-2.7389,-2.7386,-2.7416,-2.7337,-2.7399,-2.7404,-2.7409,-2.7507,-2.752,-2.7532,0,0,0,0,0,-2.7688,-2.7723,-2.7692,-2.7685,-2.7634,-2.7619,-2.7612,-2.7553,-2.7517,-2.7531,-2.7489,-2.7438,-2.7417,-2.7391,-2.7386,-2.7416,-2.7397,-2.7403,-2.7408,-2.7501,-2.7518,-2.7532,0,0,0,0,0,0,-2.7787,-2.7713,-2.7678,-2.7695,-2.7664,-2.7601,-2.7617,-2.7572,-2.7551,-2.7543,-2.7471,-2.746,-2.7475,-2.7446,-2.7418,-2.7454,-2.7399,-2.7405,-2.7472,-2.7487,-2.75,-2.7506,-2.7336,0,0,0,0,0,-2.7812,-2.7805,-2.7741,-2.7762,-2.7748,-2.7686,-2.7677,-2.7635,-2.76,-2.7586,-2.7544,-2.7513,-2.7499,-2.7491,-2.7475,-2.7503,-2.749,-2.7522,-2.7534,-2.7545,-2.755,-2.7565,-2.7579,-2.743,-2.743,-2.743,0,0,-2.7861,-2.782,-2.782,-2.7781,-2.7752,-2.7748,-2.7675,-2.7673,-2.767,-2.7586,-2.7589,-2.7558,-2.7518,-2.7536,-2.7541,-2.7512,-2.7589,-2.7552,-2.7561,-2.7561,-2.7573,-2.7587,-2.7599,-2.7434,-2.7433,-2.7433,0,0,-2.7949,-2.7917,-2.7932,-2.7905,-2.7863,-2.7822,-2.7826,-2.777,-2.7747,-2.7749,-2.7687,-2.7683,-2.766,-2.7635,-2.7619,-2.7703,-2.7655,-2.7699,-2.7765,-2.7781,-2.7792,-2.7802,-2.7834,-2.7846,-2.7705,-2.7705,-2.7705,0,-2.8016,-2.8006,-2.7945,-2.7948,-2.7933,-2.7859,-2.7874,-2.7852,-2.7806,-2.7799,-2.7767,-2.7739,-2.7707,-2.7719,-2.774,-2.7729,-2.7733,-2.7705,-2.7796,-2.7805,-2.7814,-2.7843,-2.7854,-2.7711,-2.771,-2.7709,-2.7709,0,-2.8091,-2.8087,-2.8104,-2.8064,-2.8051,-2.806,-2.8001,-2.7997,-2.7957,-2.792,-2.7925,-2.7884,-2.786,-2.786,-2.782,-2.7867,-2.7851,-2.7809,-2.7752,-2.7835,-2.7861,-2.7871,-2.7719,-2.7717,-2.7715,-2.7714,0,0,-2.8237,-2.8166,-2.8173,-2.8155,-2.8105,-2.81,-2.8108,-2.8084,-2.8082,-2.8055,-2.806,-2.8045,-2.8006,-2.7989,-2.7946,-2.796,-2.8031,-2.7916,-2.7914,-2.794,-2.8083,-2.8116,-2.8129,-2.8,-2.8002,-2.8004,-2.8087,0,-2.8317,-2.8324,-2.8271,-2.8293,-2.8289,-2.8221,-2.8227,-2.8198,-2.8164,-2.8157,-2.8119,-2.811,-2.806,-2.8049,-2.806,-2.8021,-2.8059,-2.8014,-2.8005,-2.8006,-2.8018,-2.8143,-2.8176,-2.8257,-2.8097,-2.8098,-2.81,0,-2.8409,-2.8389,-2.8411,-2.8363,-2.8359,-2.8366,-2.8342,-2.8336,-2.8302,-2.8277,-2.826,-2.8212,-2.8217,-2.8165,-2.8172,-2.8142,-2.8136,-2.8117,-2.8119,-2.8115,-2.8058,-2.8144,-2.8281,-2.8293,-2.8115,-2.8114,-2.8112,0,-2.8515,-2.8493,-2.8504,-2.8491,-2.8435,-2.8442,-2.8418,-2.8383,-2.8373,-2.8353,-2.8346,-2.8327,-2.8316,-2.8303,-2.8252,-2.8218,-2.8266,-2.8208,-2.8246,-2.8248,-2.8259,-2.8259,-2.8397,-2.8255,-2.8254,-2.8254,-2.8254,0,-2.8609,-2.8626,-2.8551,-2.8558,-2.8576,-2.8516,-2.8535,-2.8505,-2.8475,-2.8476,-2.8415,-2.8418,-2.835,-2.8345,-2.8306,-2.8319,-2.8314,-2.8295,-2.8284,-2.8301,-2.8303,-2.8295,-2.8289,-2.8257,-2.8257,-2.8256,-2.8256,0,-2.873,-2.868,-2.8688,-2.8636,-2.8623,-2.8639,-2.8594,-2.8599,-2.8563,-2.8565,-2.8562,-2.8506,-2.8498,-2.8446,-2.8425,-2.8399,-2.8427,-2.8405,-2.8439,-2.8432,-2.8473,-2.847,-2.8611,-2.8627,-2.8475,-2.8476,-2.8477,0,-2.8793,-2.8805,-2.8754,-2.8751,-2.8731,-2.8726,-2.8717,-2.8659,-2.8652,-2.8618,-2.8628,-2.8615,-2.8601,-2.8592,-2.8549,-2.8534,-2.8512,-2.8563,-2.8509,-2.8526,-2.8514,-2.8514,-2.8516,-2.8574,-2.8576,-2.8577,-2.8579,0,-2.8911,-2.8887,-2.8876,-2.8858,-2.8849,-2.8832,-2.8811,-2.8812,-2.8748,-2.8744,-2.8736,-2.8726,-2.8706,-2.8695,-2.8673,-2.865,-2.8605,-2.8596,-2.8604,-2.8621,-2.8641,-2.8632,-2.847,-2.8593,-2.8592,-2.8591,-2.859,-2.8589,-2.9005,-2.9013,-2.898,-2.8971,-2.895,-2.8933,-2.8936,-2.8902,-2.8894,-2.8874,-2.884,-2.8837,-2.8807,-2.8773,-2.8755,-2.8752,-2.8725,-2.8737,-2.874,-2.8744,-2.8753,-2.8642,-2.8748,-2.8747,-2.8747,-2.8747,-2.8746,0,-2.9121,-2.9097,-2.909,-2.9063,-2.9057,-2.9016,-2.8992,-2.8989,-2.8988,-2.8963,-2.8952,-2.8944,-2.8934,-2.8892,-2.8878,-2.8884,-2.8864,-2.8883,-2.8882,-2.8878,-2.8777,-2.8772,-2.89,-2.89,-2.89,-2.89,-2.89,-2.89,-2.918,-2.9193,-2.9166,-2.9169,-2.9145,-2.9142,-2.9132,-2.9116,-2.9097,-2.9091,-2.9083,-2.9056,-2.9025,-2.9009,-2.8999,-2.8987,-2.8985,-2.9011,-2.8993,-2.8899,-2.8884,-2.887,-2.8865,-2.9011,-2.9011,-2.9094,-2.9094,-2.9095]},{"header":{"parameterUnit":"m.s-1","parameterCategory":1,"la1":30.2991,"la2":30.254,"lo1":-89.0895,"lo2":-89.0444,"dx":0.0017,"dy":0.0017,"nx":28,"ny":28,"refTime":"2022-11-07T03:00:00:Z","depth":0,"parameterNumber":3,"parameterNumberName":"V-component_of_WINDS"},"data":[0,0,0,0,0,0,0,0,0,0,0,0,0,0,0,0,0,0,0,0,0,0,0,0,0,0,0,0,0,0,0,0,0,0,0,0,0,0,0,0,0,0,0,0,0,0,0,0,0,0,0,0,0,0,0,0,0,0,0.7997,0.7997,0,0.8023,0.8024,0.8024,0.8095,0.8096,0.8098,0.8099,0.8123,0.8122,0.8121,0,0,0,0,0,0,0,0,0,0,0,0,0,0.8005,0.8004,0.7997,0.7997,0.7997,0.8023,0.8024,0.8024,0.8094,0.8096,0.8098,0.81,0.8123,0.8122,0.8121,0,0,0,0,0,0,0,0,0,0,0,0,0,0.8013,0.8004,0.7997,0.8036,0.804,0.8023,0.8024,0.8024,0.8094,0.8096,0.8099,0.8101,0.8123,0.8122,0.8121,0.8068,0,0,0.8117,0.8117,0,0,0,0,0,0,0,0,0.8013,0.8013,0.803,0.8033,0.8037,0.8058,0.8035,0.8039,0.8093,0.8073,0.8099,0.8102,0.8099,0.81,0.81,0.8069,0.807,0.8117,0.8117,0.8116,0.8116,0,0,0,0,0,0,0,0.8012,0.8012,0.8007,0.803,0.8034,0.8051,0.8055,0.8036,0.8073,0.8075,0.808,0.8083,0.8102,0.8101,0.8101,0.807,0.8117,0.8116,0.8115,0.8115,0.7998,0.7996,0,0,0,0,0,0,0.8006,0.8011,0.8006,0.8008,0.8031,0.8049,0.8054,0.8049,0.8073,0.8079,0.8081,0.8086,0.8102,0.8102,0.8102,0.8041,0.8116,0.8115,0.8114,0.8,0.7997,0.7995,0,0,0,0,0,0,0.8006,0.8005,0.8005,0.8011,0.8012,0.8047,0.8041,0.8048,0.8048,0.8078,0.8084,0.8073,0.8104,0.8104,0.8076,0.8043,0.8114,0.8113,0.8003,0.7999,0.7996,0.7919,0,0,0,0,0,0,0.8006,0.8005,0.7985,0.801,0.8012,0.7979,0.8039,0.8047,0.8046,0.8053,0.8072,0.8078,0.8105,0.8078,0.8075,0.8043,0.8112,0.8006,0.8001,0.7997,0.7925,0.7913,0.7904,0,0,0,0,0,0.8006,0.7961,0.7984,0.7983,0.7988,0.7977,0.7978,0.8012,0.8043,0.8023,0.8043,0.8077,0.8048,0.8074,0.8072,0.8039,0.8008,0.8003,0.7997,0.7929,0.7916,0.7904,0,0,0,0,0,0,0.7929,0.7965,0.799,0.7953,0.7962,0.7989,0.7965,0.7996,0.7995,0.8001,0.8043,0.8046,0.8013,0.8024,0.8052,0.7989,0.8034,0.8028,0.7983,0.797,0.796,0.7957,0.8111,0,0,0,0,0,0.7909,0.7898,0.7929,0.7893,0.7896,0.793,0.7926,0.7952,0.7962,0.7966,0.7983,0.7991,0.7984,0.7978,0.7973,0.7928,0.7933,0.7904,0.7893,0.7885,0.7878,0.7855,0.7842,0.7977,0.7977,0.7977,0,0,0.7864,0.7883,0.7873,0.7878,0.7888,0.7875,0.7932,0.7916,0.7906,0.7963,0.7938,0.7951,0.7963,0.7926,0.7911,0.7934,0.7843,0.7878,0.7871,0.7869,0.7848,0.7835,0.7824,0.7973,0.7974,0.7975,0,0,0.7777,0.779,0.7761,0.7771,0.7786,0.7809,0.7802,0.7826,0.7837,0.7814,0.7856,0.7845,0.7832,0.7838,0.784,0.7758,0.7789,0.7755,0.7699,0.7676,0.7665,0.7656,0.7626,0.7615,0.7749,0.7749,0.7749,0,0.7719,0.7702,0.7742,0.7724,0.7724,0.7778,0.7749,0.7755,0.7767,0.7766,0.7793,0.7778,0.7789,0.7755,0.7735,0.7735,0.7728,0.7752,0.7664,0.7655,0.7647,0.7619,0.7607,0.7745,0.7745,0.7746,0.7746,0,0.7631,0.7618,0.7593,0.7605,0.7604,0.758,0.7615,0.7609,0.7636,0.7656,0.7631,0.7648,0.7647,0.7641,0.7666,0.7611,0.7625,0.7657,0.7702,0.7629,0.7603,0.7593,0.7738,0.774,0.7741,0.7742,0,0,0.7492,0.7529,0.7519,0.7525,0.7547,0.7538,0.7517,0.7518,0.7511,0.7519,0.7501,0.749,0.7521,0.7522,0.7549,0.7529,0.7462,0.7564,0.7565,0.7543,0.7402,0.7376,0.7362,0.7485,0.7483,0.7481,0.74,0,0.7409,0.7375,0.7412,0.737,0.7359,0.7411,0.7393,0.7404,0.7423,0.7416,0.7437,0.7428,0.7469,0.7471,0.7454,0.7474,0.7434,0.7481,0.7467,0.7466,0.7461,0.7349,0.7321,0.7244,0.739,0.7389,0.7388,0,0.7306,0.731,0.7268,0.7294,0.7291,0.7273,0.7278,0.7271,0.7285,0.73,0.7303,0.7337,0.7317,0.7364,0.7337,0.7368,0.7365,0.7375,0.7373,0.7371,0.7421,0.7342,0.722,0.7207,0.7372,0.7373,0.7374,0,0.7208,0.7203,0.7177,0.7182,0.7211,0.7198,0.721,0.7226,0.7225,0.7229,0.7228,0.723,0.723,0.723,0.7262,0.7293,0.7231,0.728,0.7242,0.7241,0.7225,0.7225,0.7098,0.7226,0.7226,0.7227,0.7227,0,0.7109,0.7081,0.7134,0.7117,0.7088,0.7131,0.71,0.7117,0.7131,0.7119,0.7164,0.7151,0.7196,0.7188,0.7214,0.7188,0.7188,0.7199,0.7206,0.7194,0.7192,0.719,0.7196,0.7224,0.7224,0.7225,0.7225,0,0.6993,0.7028,0.7003,0.7034,0.7042,0.7018,0.7045,0.7031,0.7054,0.7038,0.7037,0.7073,0.7066,0.7099,0.7098,0.7115,0.7075,0.7092,0.7071,0.7075,0.7035,0.7037,0.6901,0.6885,0.7024,0.7023,0.7022,0,0.6927,0.6907,0.6937,0.6932,0.6942,0.6935,0.6934,0.6976,0.6974,0.699,0.6974,0.6971,0.6971,0.6958,0.6983,0.6982,0.6998,0.6951,0.6998,0.6987,0.6996,0.6996,0.6994,0.694,0.6938,0.6937,0.6935,0,0.6805,0.6824,0.6822,0.6827,0.6825,0.6831,0.6839,0.6832,0.6878,0.6873,0.6868,0.6868,0.6868,0.6864,0.6869,0.6881,0.6915,0.6921,0.6912,0.6898,0.6886,0.6891,0.7041,0.6923,0.6924,0.6925,0.6926,0.6926,0.6711,0.6696,0.6715,0.6712,0.6723,0.673,0.6719,0.6742,0.6738,0.6742,0.6768,0.6757,0.6773,0.6784,0.6792,0.6785,0.6807,0.6794,0.679,0.6786,0.6778,0.6889,0.6786,0.6786,0.6787,0.6787,0.6787,0,0.659,0.6606,0.6603,0.6614,0.6612,0.6647,0.6659,0.6654,0.6644,0.6657,0.6657,0.6651,0.6648,0.6675,0.6676,0.6664,0.668,0.6663,0.6663,0.6665,0.6759,0.6766,0.665,0.665,0.665,0.665,0.665,0.665,0.6527,0.6503,0.6524,0.6507,0.6523,0.6514,0.6517,0.6524,0.6535,0.6526,0.6525,0.6543,0.6561,0.6564,0.6563,0.6571,0.6569,0.6546,0.6558,0.6645,0.6658,0.6671,0.6678,0.6545,0.6545,0.6465,0.6464,0.6464]}]]